• Processing (Info)

  • MPEC 2014-W154: 2014 WM365

    The following Minor Planet Electronic Circular may be linked-to from your own Web pages, but must not otherwise be redistributed electronically.

    A form allowing access to any MPEC is at the bottom of this page.


    Read MPEC 2014-W153 Read MPEC 2014-W155


    M.P.E.C. 2014-W154                               Issued 2014 Nov. 29, 15:36 UT
    
         The Minor Planet Electronic Circulars contain information on unusual
             minor planets and routine data on comets.  They are published
       on behalf of Commission 20 of the International Astronomical Union by the
              Minor Planet Center, Smithsonian Astrophysical Observatory,
                              Cambridge, MA 02138, U.S.A.
    
                 Prepared using the Tamkin Foundation Computer Network
    
                                  MPC@CFA.HARVARD.EDU
                URL https://www.minorplanetcenter.net/    ISSN 1523-6714
    
                                      2014 WM365
    
    Observations:
         K14Wa5M* C2014 11 27.45782 04 31 01.635-00 57 01.65         21.5 wLEW154F51
         K14Wa5M  C2014 11 27.47029 04 31 04.650-00 56 34.31         21.6 wLEW154F51
         K14Wa5M  C2014 11 27.49531 04 31 10.785-00 55 38.95         21.7 wLEW154F51
         K14Wa5M KC2014 11 28.26523 04 34 57.35 -00 26 31.5          21.2 RoEW154291
         K14Wa5M KC2014 11 28.26827 04 34 58.16 -00 26 24.9          21.2 RoEW154291
         K14Wa5M KC2014 11 28.27137 04 34 58.96 -00 26 17.3          21.5 RoEW154291
         K14Wa5M KC2014 11 29.24300 04 39 58.50 +00 14 02.2          21.1 RoEW154291
         K14Wa5M KC2014 11 29.24576 04 39 59.27 +00 14 09.6          21.1 RoEW154291
         K14Wa5M KC2014 11 29.24854 04 40 00.09 +00 14 16.2          21.1 RoEW154291
    
    Observer details:
    291 LPL/Spacewatch II.  Observer A. F. Tubbiolo.  1.8-m f/2.7 reflector + CCD.
    F51 Pan-STARRS 1, Haleakala.  Observers B. Gibson, T. Goggia, N. Primak,
        A. Schultz, M. Willman.  Measurers K. Chambers, S. Chastel, L. Denneau,
        H. Flewelling, M. Huber, E. Magnier, E. Schunova, R. Wainscoat, C. Waters,
        R. Weryk.  1.8-m Ritchey-Chretien + CCD.
    
    Orbital elements:
    2014 WM365                                               Earth MOID = 0.0479 AU
    Epoch 2014 Dec. 9.0 TT = JDT 2457000.5                  MPC
    M 353.70437              (2000.0)            P               Q
    n   0.41594712     Peri.    9.12654     -0.07090007     -0.99308914
    a   1.7773678      Node    84.97923     +0.90914752     -0.10291314
    e   0.4204088      Incl.    5.38723     +0.41039489     +0.05641671
    P   2.37           H   25.6           G   0.15           U   7
    Residuals in seconds of arc
    141127 F51  0.1+  0.0     141128 291  0.0   0.3+    141129 291  0.0   0.1+
    141127 F51  0.2-  0.1-    141128 291  0.1+  0.3-    141129 291  0.2-  0.3+
    141127 F51  0.1+  0.1+    141128 291  0.1-  0.1-    141129 291  0.2+  0.4-
    
    Ephemeris:
    2014 WM365               a,e,i = 1.78, 0.42, 5                   q = 1.0301
    Date    TT    R. A. (2000) Decl.     Delta      r     Elong.  Phase     V
    2014 10 30    03 24 28.4 -05 03 44   0.2091  1.1856   154.7    21.0    23.6
    ...
    2014 11 14    03 48 26.8 -05 11 48   0.1393  1.1176   155.3    21.7    22.6
    ...
    2014 11 22    04 09 34.3 -03 29 51   0.1084  1.0877   155.9    21.7    22.0
    ...
    2014 11 28    04 33 37.3 -00 36 03   0.08825 1.0688   157.7    20.5    21.5
    2014 11 29    04 38 39.1 +00 04 29   0.08519 1.0660   158.1    20.2    21.4
    2014 11 30    04 44 02.5 +00 48 56   0.08222 1.0633   158.6    19.8    21.3
    ...
    2014 12 06    05 25 36.7 +06 51 08   0.06678 1.0491   162.1    16.8    20.7
    ...
    2014 12 14    06 52 37.4 +18 59 53   0.05523 1.0361   158.9    20.0    20.4
    ...
    2014 12 29    10 05 30.3 +33 40 18   0.06976 1.0315   132.1    45.0    21.6
    
    A. U. Tomatic                (C) Copyright 2014 MPC           M.P.E.C. 2014-W154
    

    Read MPEC 2014-W153 Read MPEC 2014-W155


    MPEC number:

    Enter an MPEC number in one of the following forms:

    • 1997-B01 (the full form)
    • J97B01 (the packed version of the full form)
    • B01 (the abbreviated form)